Home   Weather   Bodrum   Past weeks

Flag for Turkey Past Weather in Bodrum, Turkey — Yesterday and Last 2 Weeks

Now
42 °F

Clear.


Feels Like: 42 °F
Forecast: 47 / 61 °F
Wind: 2 mph from Northeast

Location: Bodrum

Current Time: Dec 9, 2016 at 8:56:09 am

Latest Report: Dec 9, 2016 at 6:00 am


Visibility: 13 mi

Pressure: 30.40 "Hg

Humidity: 66%

Dew Point: 31 °F

Location of BodrumLocation

Past Weather in Bodrum — Graph

°F

Bodrum Temperature Yesterday

Maximum temperature yesterday: 62 °F (at 5:00 pm)
Minimum temperature yesterday: 47 °F (at 9:00 pm)
Average temperature yesterday: 54 °F

High & Low Weather Summary for the Past Weeks

 TemperatureHumidityPressure
High70 °F (Nov 27, 1:00 pm)96% (Nov 29, 9:00 pm)30.46 "Hg (Nov 29, 9:00 pm)
Low42 °F (Dec 9, 6:00 am)30% (Dec 8, 3:00 pm)29.73 "Hg (Nov 29, 3:00 pm)
Average59 °F62%30.13 "Hg
* Reported Nov 24 6:00 am — Dec 9 6:00 am, Bodrum, Weather by CustomWeather, © 2016

Note: Actual official high and low records may vary slightly from our data, if they occured in-between our weather recording intervals... More about our weather records

Advertising

Bodrum Weather History for the Previous 24 Hours

Scroll right to see more
 ConditionsComfort  
Time TempWeatherWind HumidityBarometerVisibility
6:00 am
Fri, Dec 9
42 °FClear.2 mph66%30.40 "Hg12 mi
3:00 am42 °FClear.2 mph53%30.41 "Hg12 mi
12:00 am46 °FClear.2 mph54%30.44 "Hg12 mi
9:00 pm
Thu, Dec 8
47 °FClear.2 mph48%30.43 "Hg12 mi
8:00 pm48 °FClear.2 mph52%30.43 "Hg12 mi
7:00 pm51 °FClear.2 mph50%30.41 "Hg12 mi
6:00 pm55 °FClear.2 mph45%30.40 "Hg12 mi
5:00 pm62 °FSunny.3 mph35%30.40 "Hg12 mi
4:00 pm61 °FSunny.7 mph33%30.40 "Hg12 mi
3:00 pm62 °FSunny.6 mph30%30.41 "Hg12 mi
2:00 pm61 °FSunny.3 mph35%30.42 "Hg12 mi
1:00 pm59 °FSunny.7 mph32%30.44 "Hg12 mi
12:00 pm56 °FSunny.9 mph42%30.45 "Hg12 mi
11:00 am53 °FSunny.12 mph40%30.46 "Hg12 mi
10:00 am51 °FSunny.13 mph45%30.45 "Hg12 mi
9:00 am47 °FSunny.5 mph51%30.45 "Hg12 mi
Weather by CustomWeather, © 2016

See weather overviewHow to use our weather pages